period_start,C,m1,H,J0,J1,J2,J3,J4,J5,JA,JB,JC,JD,JJ,JK,JN,#
2017-09-12 00:04:20,0.01,0.14,0.00,24.68,27.95,30.40,13.94,43.46,1028.83,2029.99,3515.00,3044.70,3490.01,599.86,599.63,15.62,0000 0000 0000 0000 000000
2017-09-12 00:09:21,0.00,0.14,0.00,24.69,27.95,30.38,13.90,43.59,1028.83,2029.99,3514.94,3044.32,3490.00,599.81,599.45,15.67,0000 0000 0000 0000 000000
2017-09-12 00:14:22,0.02,0.14,0.00,24.66,27.95,30.39,13.94,43.57,1028.84,2029.99,3514.24,3044.05,3489.88,599.93,599.83,15.72,0000 0000 0000 0000 000000
2017-09-12 00:19:24,0.01,0.14,0.00,24.70,27.95,30.39,13.92,43.43,1028.84,2029.99,3514.00,3044.00,3489.25,600.06,599.76,15.77,0000 0000 0000 0000 000000
2017-09-12 00:24:25,0.00,0.14,0.00,24.68,27.95,30.37,13.97,43.58,1028.84,2029.99,3513.89,3043.99,3489.01,600.19,600.08,15.82,0000 0000 0000 0000 000000
2017-09-12 00:29:27,0.01,0.14,0.00,24.65,27.95,30.38,13.95,43.41,1028.85,2029.99,3513.21,3043.96,3489.00,599.78,599.70,15.87,0000 0000 0000 0000 000000
2017-09-12 00:34:28,0.02,0.15,0.00,24.64,27.95,30.39,13.92,43.42,1028.86,2030.00,3512.99,3043.45,3488.88,600.17,600.01,15.92,0000 0000 0000 0000 000000
2017-09-12 00:39:29,0.02,0.15,0.00,24.61,27.95,30.39,13.92,43.54,1028.84,2030.00,3512.70,3043.03,3488.17,599.72,599.67,15.97,0000 0000 0000 0000 000000
2017-09-12 00:44:31,0.01,0.15,0.00,24.61,27.95,30.39,13.93,43.49,1028.83,2030.00,3512.04,3043.00,3488.01,600.11,600.05,16.02,0000 0000 0000 0000 000000
2017-09-12 00:49:32,0.00,0.15,0.00,24.59,27.95,30.39,13.93,43.52,1028.83,2030.00,3512.00,3043.00,3487.99,600.06,600.03,16.07,0000 0000 0000 0000 000000
2017-09-12 00:54:33,0.01,0.15,0.00,24.57,27.94,30.39,13.98,43.60,1028.84,2030.00,3511.62,3042.90,3487.87,600.13,600.14,16.12,0000 0000 0000 0000 000000
2017-09-12 00:59:35,0.02,0.15,0.00,24.55,27.92,30.39,13.97,43.52,1028.83,2030.00,3511.08,3042.63,3487.30,599.89,599.94,16.17,0000 0000 0000 0000 000000
2017-09-12 01:04:36,0.01,0.15,0.00,24.54,27.92,30.38,13.85,43.66,1028.83,2030.00,3511.00,3042.10,3487.01,599.87,600.02,16.22,0000 0000 0000 0000 000000
2017-09-12 01:09:37,0.00,0.15,0.00,24.55,27.92,30.37,13.97,43.63,1028.83,2030.00,3510.79,3042.02,3487.00,600.23,600.24,16.27,0000 0000 0000 0000 000000
2017-09-12 01:14:38,0.01,0.15,0.00,24.53,27.92,30.37,13.95,43.44,1028.83,2030.00,3510.15,3042.00,3486.96,599.91,600.01,16.32,0000 0000 0000 0000 000000
2017-09-12 01:19:39,0.00,0.15,0.00,24.51,27.91,30.36,13.96,43.48,1028.83,2030.01,3510.01,3041.99,3486.78,600.17,600.32,16.37,0000 0000 0000 0000 000000
2017-09-12 01:24:41,0.01,0.15,0.00,24.52,27.90,30.36,13.91,43.66,1028.83,2030.02,3509.97,3041.98,3486.19,599.89,599.95,16.42,0000 0000 0000 0000 000000
2017-09-12 01:29:42,0.02,0.15,0.00,24.51,27.90,30.34,13.92,43.52,1028.82,2030.06,3509.50,3041.92,3486.03,599.58,599.72,16.47,0000 0000 0000 0000 000000
2017-09-12 01:34:43,0.01,0.15,0.00,24.50,27.90,30.33,13.90,43.44,1028.81,2030.03,3509.01,3041.30,3486.00,600.01,600.19,16.52,0000 0000 0000 0000 000000
2017-09-12 01:39:45,0.00,0.15,0.00,24.52,27.90,30.33,13.94,43.61,1028.82,2030.03,3508.95,3041.04,3485.96,599.78,599.89,16.57,0000 0000 0000 0000 000000
2017-09-12 01:44:46,0.02,0.15,0.00,24.51,27.88,30.32,14.06,43.60,1028.82,2030.04,3508.30,3041.00,3485.38,600.33,600.38,16.62,0000 0000 0000 0000 000000
2017-09-12 01:49:47,0.00,0.16,0.00,24.51,27.87,30.32,13.85,43.62,1028.82,2030.05,3508.01,3040.99,3485.04,599.71,599.84,16.67,0000 0000 0000 0000 000000
2017-09-12 01:54:49,0.01,0.16,0.00,24.50,27.87,30.30,13.98,43.56,1028.83,2030.10,3507.98,3040.97,3485.00,600.12,600.32,16.72,0000 0000 0000 0000 000000
2017-09-12 01:59:50,0.01,0.16,0.00,24.51,27.87,30.30,13.95,43.67,1028.83,2030.16,3507.51,3040.80,3484.99,599.87,599.99,16.77,0000 0000 0000 0000 000000
2017-09-12 02:04:51,0.03,0.16,0.00,24.51,27.86,30.30,13.95,43.63,1028.83,2030.20,3507.01,3040.24,3484.87,599.89,600.04,16.82,0000 0000 0000 0000 000000
2017-09-12 02:09:53,0.04,0.16,0.00,24.50,27.85,30.29,13.94,43.51,1028.84,2030.43,3506.94,3040.03,3484.21,599.70,599.76,16.87,0000 0000 0000 0000 000000
2017-09-12 02:14:54,0.01,0.16,0.00,24.49,27.85,30.29,13.94,43.67,1028.83,2030.47,3506.27,3040.00,3484.01,599.96,600.14,16.92,0000 0000 0000 0000 000000
2017-09-12 02:19:55,0.03,0.16,0.00,24.48,27.85,30.29,13.97,43.57,1028.83,2030.73,3506.00,3040.00,3484.00,600.13,600.19,16.97,0000 0000 0000 0000 000000
2017-09-12 02:24:56,0.01,0.16,0.00,24.50,27.85,30.27,14.00,43.59,1028.83,2030.80,3505.91,3039.98,3483.95,600.13,600.19,17.02,0000 0000 0000 0000 000000
2017-09-12 02:29:58,0.02,0.16,0.00,24.51,27.84,30.27,13.92,43.53,1028.84,2030.84,3505.23,3039.79,3483.41,599.81,599.96,17.07,0000 0000 0000 0000 000000
2017-09-12 02:34:59,0.03,0.17,0.00,24.51,27.83,30.27,13.91,43.48,1028.84,2030.89,3505.00,3039.19,3483.03,600.06,600.24,17.12,0000 0000 0000 0000 000000
2017-09-12 02:40:00,0.00,0.17,0.00,24.50,27.82,30.27,13.96,43.64,1028.84,2030.90,3504.92,3039.03,3483.00,600.20,600.33,17.17,0000 0000 0000 0000 000000
2017-09-12 02:45:01,0.01,0.17,0.00,24.46,27.82,30.27,14.00,43.64,1028.84,2030.94,3504.29,3039.00,3483.00,600.31,600.49,17.22,0000 0000 0000 0000 000000
2017-09-12 03:53:18,0.00,0.00,0.00,22.41,26.92,24.67,12.74,40.23,1028.68,1901.32,3330.96,2892.11,3327.44,549.57,553.50,0.01,0000 0000 0000 0000 000000
2017-09-12 03:58:19,0.00,0.00,0.00,22.47,26.68,25.86,13.90,42.81,1028.83,2035.01,3561.47,3094.14,3560.33,599.89,604.20,0.06,0000 0000 0000 0000 000000
2017-09-12 04:03:20,0.00,0.00,0.00,22.59,26.49,26.51,13.88,42.53,1028.94,2035.06,3561.00,3094.14,3560.02,599.91,603.92,0.11,0000 0000 0000 0000 000000
2017-09-12 04:08:21,0.01,0.00,0.00,22.69,26.34,27.15,13.93,42.41,1029.22,2035.87,3561.01,3094.91,3560.62,600.00,604.10,0.16,0000 0000 0000 0000 000000
2017-09-12 04:13:22,0.01,0.00,0.00,22.81,26.22,27.37,13.96,42.67,1029.31,2036.06,3561.14,3095.11,3560.99,600.03,604.01,0.21,0000 0000 0000 0000 000000
2017-09-12 04:18:23,0.03,0.00,0.00,22.96,26.14,27.84,13.99,42.80,1029.31,2036.81,3561.69,3095.89,3561.01,600.27,603.74,0.26,0000 0000 0000 0000 000000
2017-09-12 04:23:25,0.01,0.00,0.00,23.14,26.10,28.05,13.97,42.51,1029.31,2036.99,3561.92,3095.99,3561.04,600.44,603.62,0.31,0000 0000 0000 0000 000000
2017-09-12 04:28:26,0.01,0.00,0.00,23.81,26.07,28.22,13.84,42.25,1029.33,2037.01,3561.89,3095.99,3561.05,599.89,601.59,0.36,0000 0000 0000 0000 000000
2017-09-12 04:33:27,0.01,0.00,0.00,24.04,26.10,28.34,13.88,42.18,1029.37,2037.07,3561.53,3096.00,3561.01,600.08,601.38,0.41,0000 0000 0000 0000 000000
2017-09-12 04:38:28,0.02,0.01,0.00,23.88,26.12,28.46,13.90,41.89,1029.56,2037.19,3561.04,3096.00,3560.99,599.99,601.89,0.46,0000 0000 0000 0000 000000
2017-09-12 04:43:30,0.01,0.01,0.00,23.93,26.16,28.61,13.92,41.90,1029.73,2037.28,3560.99,3095.95,3560.68,599.90,601.74,0.51,0000 0000 0000 0000 000000
2017-09-12 04:48:31,0.02,0.01,0.00,23.94,26.22,28.74,13.93,41.89,1029.79,2037.09,3560.53,3095.36,3560.03,600.07,601.84,0.56,0000 0000 0000 0000 000000
2017-09-12 04:53:33,0.01,0.01,0.00,23.94,26.27,28.84,13.87,41.78,1029.80,2037.05,3560.02,3095.02,3559.97,599.76,601.58,0.61,0000 0000 0000 0000 000000
2017-09-12 04:58:34,0.01,0.01,0.00,23.98,26.33,28.93,13.88,41.77,1029.80,2037.03,3559.89,3095.00,3559.27,599.58,601.28,0.66,0000 0000 0000 0000 000000
2017-09-12 05:03:35,0.02,0.01,0.00,23.99,26.38,29.00,13.98,41.82,1029.80,2037.00,3559.10,3094.60,3558.93,600.50,602.23,0.71,0000 0000 0000 0000 000000
2017-09-12 05:08:36,0.02,0.01,0.00,24.02,26.44,29.07,13.90,41.66,1029.80,2037.00,3558.66,3094.03,3558.17,600.10,601.85,0.76,0000 0000 0000 0000 000000
2017-09-12 05:13:38,0.01,0.01,0.00,24.02,26.50,29.12,13.94,41.81,1029.80,2036.99,3558.02,3093.94,3557.87,600.14,601.77,0.81,0000 0000 0000 0000 000000
2017-09-12 05:18:39,0.03,0.01,0.00,24.05,26.55,29.17,13.84,41.74,1029.81,2036.92,3557.51,3093.21,3557.08,599.83,601.48,0.86,0000 0000 0000 0000 000000
2017-09-12 05:23:40,-0.04,0.01,0.00,24.03,26.60,29.22,13.90,41.70,1029.80,2036.37,3556.98,3092.99,3556.57,599.91,601.57,0.91,0000 0000 0000 0000 000000
2017-09-12 05:28:42,0.02,0.01,0.00,24.04,26.65,29.27,13.92,41.66,1029.81,2036.06,3556.23,3092.49,3555.99,599.90,601.53,0.96,0000 0000 0000 0000 000000
2017-09-12 05:33:43,0.02,0.01,0.00,24.03,26.70,29.31,13.90,41.73,1029.81,2036.01,3555.81,3092.01,3555.45,600.07,601.81,1.01,0000 0000 0000 0000 000000
2017-09-12 05:38:44,0.01,0.01,0.00,24.05,26.74,29.36,13.91,41.52,1029.82,2036.00,3555.06,3091.89,3554.99,599.73,601.47,1.06,0000 0000 0000 0000 000000
2017-09-12 05:43:45,0.03,0.02,0.00,24.06,26.78,29.38,14.00,41.57,1029.81,2036.00,3554.79,3091.13,3554.36,600.03,601.62,1.11,0000 0000 0000 0000 000000
2017-09-12 05:48:47,0.01,0.02,0.00,24.05,26.82,29.42,13.90,41.64,1029.82,2035.94,3554.04,3090.99,3553.94,600.01,601.62,1.16,0000 0000 0000 0000 000000
2017-09-12 05:53:48,-0.01,0.02,0.00,24.06,26.86,29.44,14.01,41.61,1029.83,2035.50,3553.53,3090.45,3553.22,600.10,601.59,1.21,0000 0000 0000 0000 000000
2017-09-12 05:58:49,-0.01,0.02,0.00,24.09,26.90,29.48,13.95,41.64,1029.81,2035.12,3553.00,3090.01,3552.94,600.02,601.58,1.26,0000 0000 0000 0000 000000
2017-09-12 06:03:51,0.02,0.02,0.00,24.12,26.93,29.51,13.92,41.65,1029.82,2035.00,3552.40,3089.90,3552.18,600.00,601.72,1.31,0000 0000 0000 0000 000000
2017-09-12 06:08:52,0.02,0.02,0.00,24.11,26.96,29.53,13.85,41.67,1029.83,2035.00,3552.00,3089.16,3551.99,599.84,601.37,1.36,0000 0000 0000 0000 000000
2017-09-12 06:13:54,0.02,0.02,0.00,24.12,26.99,29.56,13.98,41.64,1029.89,2035.00,3551.66,3089.00,3551.50,600.03,601.56,1.41,0000 0000 0000 0000 000000
2017-09-12 06:18:55,0.01,0.02,0.00,24.12,27.02,29.58,13.91,41.54,1030.06,2034.95,3551.00,3088.74,3550.95,599.90,601.51,1.46,0000 0000 0000 0000 000000
2017-09-12 06:23:57,0.03,0.02,0.00,24.12,27.05,29.61,13.91,41.45,1030.10,2034.89,3550.35,3088.07,3550.27,599.99,601.66,1.51,0000 0000 0000 0000 000000
2017-09-12 06:28:58,-0.04,0.02,0.00,24.12,27.07,29.62,13.93,41.48,1030.21,2034.50,3550.00,3088.00,3550.00,599.99,601.57,1.56,0000 0000 0000 0000 000000
2017-09-12 06:33:59,0.00,0.02,0.00,24.11,27.10,29.64,13.95,41.61,1030.27,2034.15,3549.64,3087.92,3549.85,599.96,601.71,1.61,0000 0000 0000 0000 000000
2017-09-12 06:39:00,0.02,0.02,0.00,24.09,27.12,29.66,13.87,41.60,1030.27,2034.03,3549.05,3087.23,3549.09,599.95,601.62,1.66,0000 0000 0000 0000 000000
2017-09-12 06:44:01,0.00,0.02,0.00,24.12,27.14,29.68,13.92,41.69,1030.28,2034.00,3548.86,3087.00,3548.98,600.12,601.89,1.71,0000 0000 0000 0000 000000
2017-09-12 06:49:03,0.02,0.02,0.00,24.13,27.16,29.69,13.87,41.59,1030.29,2034.00,3548.08,3087.00,3548.42,599.87,601.68,1.76,0000 0000 0000 0000 000000
2017-09-12 06:54:04,0.01,0.02,0.00,24.15,27.17,29.71,13.97,41.56,1030.27,2033.99,3548.00,3086.69,3548.04,600.20,601.84,1.81,0000 0000 0000 0000 000000
2017-09-12 06:59:05,0.02,0.02,0.00,24.13,27.20,29.73,14.01,41.57,1030.27,2033.98,3547.53,3086.06,3547.97,600.18,601.85,1.86,0000 0000 0000 0000 000000
2017-09-12 07:04:06,0.01,0.02,0.00,24.14,27.21,29.74,13.79,41.42,1030.27,2033.98,3547.02,3086.00,3547.51,599.95,601.56,1.92,0000 0000 0000 0000 000000
2017-09-12 07:09:08,0.00,0.02,0.00,24.14,27.22,29.75,13.96,41.55,1030.22,2033.98,3546.97,3085.99,3547.04,600.11,601.84,1.97,0000 0000 0000 0000 000000
2017-09-12 07:14:09,0.02,0.03,0.00,24.13,27.24,29.76,13.99,41.62,1030.17,2033.95,3546.31,3085.60,3546.99,600.16,601.85,2.02,0000 0000 0000 0000 000000
2017-09-12 07:19:10,0.01,0.03,0.00,24.15,27.25,29.78,13.92,41.57,1030.19,2033.85,3546.01,3085.08,3546.67,599.93,601.59,2.07,0000 0000 0000 0000 000000
2017-09-12 07:24:11,-0.01,0.03,0.00,24.13,27.27,29.78,13.90,41.60,1030.21,2033.63,3545.93,3085.00,3546.05,599.81,601.54,2.12,0000 0000 0000 0000 000000
2017-09-12 07:29:12,-0.01,0.03,0.00,24.11,27.27,29.79,13.91,41.51,1030.27,2033.40,3545.26,3084.99,3546.00,600.06,601.80,2.17,0000 0000 0000 0000 000000
2017-09-12 07:34:14,-0.01,0.03,0.00,24.13,27.29,29.80,13.87,41.57,1030.26,2033.23,3545.00,3084.83,3545.81,599.50,601.33,2.22,0000 0000 0000 0000 000000
2017-09-12 07:39:14,0.02,0.03,0.00,24.14,27.30,29.81,13.98,41.55,1030.29,2033.08,3544.84,3084.22,3545.11,600.08,601.82,2.27,0000 0000 0000 0000 000000
2017-09-12 07:44:16,0.01,0.03,0.00,24.14,27.30,29.82,13.95,41.58,1030.29,2033.03,3544.15,3084.02,3545.00,600.06,601.87,2.32,0000 0000 0000 0000 000000
2017-09-12 07:49:17,0.00,0.03,0.00,24.15,27.32,29.82,13.91,41.65,1030.29,2033.02,3544.00,3084.00,3544.99,599.81,601.53,2.37,0000 0000 0000 0000 000000
2017-09-12 07:54:18,0.01,0.03,0.00,24.16,27.32,29.83,13.92,41.64,1030.29,2033.01,3543.92,3083.98,3544.63,599.76,601.42,2.42,0000 0000 0000 0000 000000
2017-09-12 07:59:20,0.02,0.03,0.00,24.15,27.32,29.84,13.95,41.68,1030.29,2033.00,3543.25,3083.83,3544.05,600.04,601.77,2.47,0000 0000 0000 0000 000000
2017-09-12 08:04:21,0.01,0.03,0.00,24.13,27.34,29.84,14.00,41.63,1030.29,2032.99,3543.00,3083.27,3544.00,600.01,601.80,2.52,0000 0000 0000 0000 000000
2017-09-12 08:09:22,0.02,0.03,0.00,24.13,27.35,29.84,13.89,41.51,1030.30,2032.99,3542.35,3083.01,3543.62,599.75,601.50,2.57,0000 0000 0000 0000 000000
2017-09-12 08:14:23,0.02,0.03,0.00,24.15,27.35,29.85,13.96,41.61,1030.31,2032.99,3541.35,3082.88,3543.02,600.15,601.86,2.62,0000 0000 0000 0000 000000
2017-09-12 08:19:25,0.00,0.03,0.00,24.14,27.35,29.86,14.00,41.69,1030.31,2032.99,3541.04,3082.69,3543.00,600.25,601.99,2.67,0000 0000 0000 0000 000000
2017-09-12 08:24:26,0.01,0.03,0.00,24.13,27.36,29.87,13.91,41.63,1030.32,2032.99,3541.00,3082.17,3542.98,600.04,601.81,2.72,0000 0000 0000 0000 000000
2017-09-12 08:29:27,0.01,0.03,0.00,24.13,27.37,29.87,13.95,41.70,1030.32,2032.99,3540.86,3082.02,3542.71,599.90,601.70,2.77,0000 0000 0000 0000 000000
2017-09-12 08:34:29,0.02,0.03,0.00,24.15,27.37,29.87,13.93,41.53,1030.31,2032.98,3540.11,3082.00,3542.06,599.98,601.71,2.82,0000 0000 0000 0000 000000
2017-09-12 08:39:30,0.00,0.03,0.00,24.15,27.37,29.86,13.91,41.49,1030.32,2032.99,3540.00,3081.98,3542.00,599.88,601.40,2.87,0000 0000 0000 0000 000000
2017-09-12 08:44:31,0.03,0.04,0.00,24.13,27.39,29.87,13.96,41.73,1030.31,2032.98,3539.64,3081.60,3541.87,600.21,602.06,2.92,0000 0000 0000 0000 000000
2017-09-12 08:49:33,0.02,0.04,0.00,24.15,27.40,29.88,14.00,41.58,1030.32,2032.98,3539.04,3081.11,3541.32,599.92,601.64,2.97,0000 0000 0000 0000 000000
2017-09-12 08:54:34,0.00,0.04,0.00,24.13,27.40,29.89,13.95,41.62,1030.37,2032.98,3539.00,3081.02,3541.05,600.21,602.02,3.02,0000 0000 0000 0000 000000
2017-09-12 08:59:35,0.00,0.04,0.00,24.14,27.40,29.88,13.97,41.58,1030.40,2032.97,3538.93,3081.00,3541.00,600.09,601.97,3.07,0000 0000 0000 0000 000000
2017-09-12 09:04:37,0.01,0.04,0.00,24.12,27.40,29.89,13.99,41.52,1030.51,2032.98,3538.41,3081.00,3540.99,600.26,602.07,3.12,0000 0000 0000 0000 000000
2017-09-12 09:09:38,0.00,0.04,0.00,24.11,27.40,29.90,13.85,41.48,1030.46,2032.98,3538.02,3080.98,3540.91,599.64,601.47,3.17,0000 0000 0000 0000 000000
2017-09-12 09:14:39,0.01,0.04,0.00,24.11,27.40,29.90,13.98,41.54,1030.64,2032.97,3537.99,3080.80,3540.26,600.14,602.12,3.22,0000 0000 0000 0000 000000
2017-09-12 09:19:40,0.02,0.04,0.00,24.15,27.40,29.90,13.96,41.46,1030.69,2032.97,3537.75,3080.37,3540.03,600.18,602.04,3.27,0000 0000 0000 0000 000000
2017-09-12 09:24:42,0.01,0.04,0.00,24.17,27.41,29.90,13.98,41.40,1030.71,2032.97,3537.23,3080.11,3540.00,599.94,601.83,3.32,0000 0000 0000 0000 000000
2017-09-12 09:29:43,0.00,0.04,0.00,24.14,27.42,29.90,13.87,41.47,1030.77,2032.94,3537.00,3080.01,3539.99,599.85,601.86,3.37,0000 0000 0000 0000 000000
2017-09-12 09:34:44,0.00,0.04,0.00,24.12,27.42,29.90,13.92,41.59,1030.78,2032.93,3537.00,3080.00,3539.96,599.82,601.88,3.42,0000 0000 0000 0000 000000
2017-09-12 09:39:45,0.01,0.04,0.00,24.12,27.42,29.90,14.05,41.71,1030.77,2032.93,3536.93,3080.00,3539.53,600.58,602.52,3.47,0000 0000 0000 0000 000000
2017-09-12 09:44:46,0.01,0.04,0.00,24.12,27.42,29.91,13.92,41.58,1030.78,2032.89,3536.23,3079.98,3539.07,599.73,601.76,3.52,0000 0000 0000 0000 000000
2017-09-12 09:49:48,0.01,0.04,0.00,24.15,27.42,29.90,13.93,41.63,1030.78,2032.84,3536.01,3079.77,3539.00,599.87,601.87,3.57,0000 0000 0000 0000 000000
2017-09-12 09:54:49,0.01,0.04,0.00,24.15,27.42,29.91,13.91,41.44,1030.78,2032.82,3536.00,3079.36,3539.00,600.00,601.96,3.62,0000 0000 0000 0000 000000
2017-09-12 09:59:50,0.00,0.04,0.00,24.12,27.42,29.91,13.94,41.50,1030.78,2032.84,3535.97,3079.16,3538.99,599.75,601.76,3.67,0000 0000 0000 0000 000000
2017-09-12 10:04:51,0.02,0.04,0.00,24.12,27.42,29.91,13.95,41.61,1030.78,2032.88,3535.61,3079.03,3538.90,600.48,602.40,3.72,0000 0000 0000 0000 000000
2017-09-12 10:09:53,0.01,0.04,0.00,24.14,27.42,29.91,14.01,41.43,1030.78,2032.90,3535.10,3079.00,3538.59,600.12,602.11,3.77,0000 0000 0000 0000 000000
2017-09-12 10:14:54,0.01,0.04,0.00,24.14,27.42,29.91,13.93,41.48,1030.78,2032.92,3535.01,3079.00,3538.17,599.89,601.85,3.82,0000 0000 0000 0000 000000
2017-09-12 10:19:56,-0.01,0.04,0.00,24.12,27.42,29.92,13.99,41.54,1030.78,2032.77,3534.99,3079.00,3538.00,600.06,602.24,3.87,0000 0000 0000 0000 000000
2017-09-12 10:24:57,0.01,0.04,0.00,24.12,27.42,29.91,13.97,41.56,1030.78,2032.83,3534.89,3078.98,3538.00,599.80,601.99,3.92,0000 0000 0000 0000 000000
2017-09-12 10:29:58,0.01,0.05,0.00,24.14,27.42,29.91,13.92,41.61,1030.78,2032.90,3534.67,3078.97,3538.00,600.32,602.34,3.97,0000 0000 0000 0000 000000
2017-09-12 10:34:59,0.00,0.05,0.00,24.11,27.42,29.92,13.90,41.53,1030.78,2032.88,3534.10,3078.93,3537.98,599.90,601.99,4.02,0000 0000 0000 0000 000000
2017-09-12 10:40:00,0.01,0.05,0.00,24.12,27.42,29.91,13.96,41.42,1030.78,2032.89,3534.01,3078.79,3537.89,600.03,602.07,4.07,0000 0000 0000 0000 000000
2017-09-12 10:45:01,0.01,0.05,0.00,24.12,27.42,29.92,13.98,41.39,1030.78,2032.85,3533.99,3078.34,3537.51,600.03,601.95,4.12,0000 0000 0000 0000 000000
2017-09-12 10:50:02,0.02,0.05,0.00,24.10,27.42,29.92,13.95,41.43,1030.78,2032.86,3533.95,3078.06,3537.12,599.85,601.97,4.17,0000 0000 0000 0000 000000
2017-09-12 10:55:04,0.01,0.05,0.00,24.12,27.42,29.91,13.95,41.37,1030.78,2032.95,3533.53,3078.04,3537.04,599.88,601.94,4.22,0000 0000 0000 0000 000000
2017-09-12 11:00:05,0.01,0.05,0.00,24.11,27.42,29.91,13.98,41.58,1030.78,2032.92,3533.04,3078.00,3537.00,599.96,602.09,4.27,0000 0000 0000 0000 000000
2017-09-12 11:05:06,0.00,0.05,0.00,24.12,27.42,29.91,14.01,41.45,1030.78,2032.93,3533.00,3078.00,3537.00,600.21,602.32,4.32,0000 0000 0000 0000 000000
2017-09-12 11:10:07,-0.01,0.05,0.00,24.11,27.42,29.92,13.93,41.43,1030.78,2032.83,3532.96,3077.99,3536.96,599.70,601.85,4.38,0000 0000 0000 0000 000000
2017-09-12 11:15:09,0.01,0.05,0.00,24.10,27.42,29.91,13.97,41.50,1030.79,2032.86,3532.76,3077.97,3536.85,600.22,602.28,4.43,0000 0000 0000 0000 000000
2017-09-12 11:20:10,0.02,0.05,0.00,24.11,27.42,29.91,13.95,41.56,1030.79,2032.90,3532.24,3077.92,3536.49,599.99,602.19,4.48,0000 0000 0000 0000 000000
2017-09-12 11:25:11,0.01,0.05,0.00,24.11,27.42,29.91,13.98,41.54,1030.80,2032.85,3532.01,3077.41,3536.08,600.21,602.11,4.53,0000 0000 0000 0000 000000
2017-09-12 11:30:13,0.01,0.05,0.00,24.10,27.42,29.91,13.94,41.52,1030.79,2032.84,3531.99,3077.07,3536.00,600.12,602.22,4.58,0000 0000 0000 0000 000000
2017-09-12 11:35:14,0.00,0.05,0.00,24.11,27.42,29.92,13.96,41.57,1030.80,2032.83,3531.76,3077.01,3536.00,599.99,602.07,4.63,0000 0000 0000 0000 000000
2017-09-12 11:40:15,0.01,0.05,0.00,24.12,27.42,29.91,14.01,41.44,1030.85,2032.86,3531.29,3077.00,3535.99,600.34,602.51,4.68,0000 0000 0000 0000 000000
2017-09-12 11:45:17,0.00,0.05,0.00,24.09,27.42,29.92,13.92,41.45,1030.88,2032.90,3531.02,3077.00,3535.96,599.68,601.85,4.73,0000 0000 0000 0000 000000
2017-09-12 11:50:18,0.00,0.05,0.00,24.08,27.42,29.91,14.01,41.50,1030.87,2032.88,3531.00,3077.00,3535.59,600.00,602.26,4.78,0000 0000 0000 0000 000000
2017-09-12 11:55:20,0.01,0.05,0.00,24.08,27.42,29.91,13.89,41.53,1030.91,2032.92,3531.00,3076.99,3535.37,599.57,601.86,4.83,0000 0000 0000 0000 000000
2017-09-12 12:00:21,0.00,0.05,0.00,24.09,27.42,29.91,13.94,41.55,1030.89,2032.93,3530.95,3076.97,3535.13,600.01,602.23,4.88,0000 0000 0000 0000 000000
2017-09-12 12:05:22,0.01,0.05,0.00,24.08,27.42,29.90,14.04,41.58,1030.90,2032.93,3530.43,3076.93,3535.01,600.14,602.33,4.93,0000 0000 0000 0000 000000
2017-09-12 12:10:24,0.00,0.05,0.00,24.08,27.41,29.89,14.01,41.63,1030.88,2032.96,3530.11,3076.90,3535.00,600.19,602.48,4.98,0000 0000 0000 0000 000000
2017-09-12 12:15:25,0.01,0.05,0.00,24.08,27.40,29.90,13.99,41.47,1030.85,2032.97,3530.03,3076.76,3535.00,600.34,602.47,5.03,0000 0000 0000 0000 000000
2017-09-12 12:20:26,0.01,0.05,0.00,24.07,27.40,29.90,13.93,41.59,1030.84,2032.97,3530.00,3076.35,3534.99,600.13,602.34,5.08,0000 0000 0000 0000 000000
2017-09-12 12:25:27,0.00,0.06,0.00,24.10,27.40,29.91,14.07,41.48,1030.83,2032.96,3529.99,3076.13,3534.96,600.28,602.41,5.13,0000 0000 0000 0000 000000
2017-09-12 12:30:29,0.02,0.06,0.00,24.07,27.40,29.90,13.94,41.56,1030.82,2032.95,3529.62,3076.01,3534.60,599.73,601.93,5.18,0000 0000 0000 0000 000000
2017-09-12 12:35:30,0.01,0.06,0.00,24.05,27.40,29.90,13.92,41.48,1030.81,2032.97,3529.12,3076.00,3534.19,599.74,602.02,5.23,0000 0000 0000 0000 000000
2017-09-12 12:40:31,-0.00,0.06,0.00,24.05,27.40,29.89,13.94,41.46,1030.80,2032.97,3529.03,3076.00,3534.05,599.81,601.92,5.28,0000 0000 0000 0000 000000
2017-09-12 12:45:32,-0.00,0.06,0.00,24.06,27.40,29.89,13.96,41.56,1030.79,2032.95,3529.00,3075.99,3534.01,600.05,602.28,5.33,0000 0000 0000 0000 000000
2017-09-12 12:50:33,0.00,0.06,0.00,24.07,27.39,29.89,13.89,41.45,1030.79,2032.96,3528.88,3075.96,3534.00,599.44,601.56,5.38,0000 0000 0000 0000 000000
2017-09-12 12:55:35,0.01,0.06,0.00,24.03,27.38,29.90,14.01,41.47,1030.79,2032.97,3528.22,3075.78,3533.97,600.24,602.49,5.43,0000 0000 0000 0000 000000
2017-09-12 13:00:36,0.01,0.06,0.00,24.01,27.37,29.88,14.03,41.55,1030.79,2032.96,3528.01,3075.45,3533.87,600.41,602.66,5.48,0000 0000 0000 0000 000000
2017-09-12 13:05:38,0.00,0.06,0.00,24.03,27.37,29.89,13.95,41.50,1030.78,2032.97,3528.00,3075.32,3533.63,599.83,602.07,5.53,0000 0000 0000 0000 000000
2017-09-12 13:10:39,0.01,0.06,0.00,24.02,27.37,29.87,13.96,41.46,1030.79,2032.98,3527.99,3075.12,3533.26,599.94,602.27,5.58,0000 0000 0000 0000 000000
2017-09-12 13:15:40,0.00,0.06,0.00,24.03,27.37,29.87,14.00,41.42,1030.79,2032.98,3527.95,3075.04,3533.07,600.21,602.35,5.63,0000 0000 0000 0000 000000
2017-09-12 13:20:41,0.00,0.06,0.00,24.04,27.37,29.87,13.89,41.48,1030.79,2032.99,3527.67,3075.01,3533.01,600.04,602.32,5.68,0000 0000 0000 0000 000000
2017-09-12 13:25:43,0.00,0.06,0.00,24.03,27.37,29.88,13.92,41.45,1030.79,2032.99,3527.13,3075.00,3533.00,599.98,602.27,5.73,0000 0000 0000 0000 000000
2017-09-12 13:30:44,0.00,0.06,0.00,24.04,27.37,29.87,13.96,41.47,1030.79,2032.99,3527.02,3075.00,3533.00,600.03,602.20,5.78,0000 0000 0000 0000 000000
2017-09-12 13:35:45,0.00,0.06,0.00,24.02,27.37,29.87,13.96,41.52,1030.79,2032.99,3527.00,3074.99,3532.96,600.27,602.57,5.83,0000 0000 0000 0000 000000
2017-09-12 13:40:47,0.00,0.06,0.00,24.00,27.37,29.87,13.96,41.65,1030.79,2032.99,3526.96,3074.97,3532.89,599.69,602.09,5.88,0000 0000 0000 0000 000000
2017-09-12 13:45:48,0.02,0.06,0.00,24.02,27.37,29.87,13.91,41.41,1030.80,2032.99,3526.57,3074.90,3532.35,599.85,602.07,5.93,0000 0000 0000 0000 000000
2017-09-12 13:50:50,0.01,0.06,0.00,24.01,27.37,29.87,13.93,41.55,1030.80,2032.98,3526.06,3074.63,3532.04,599.86,602.30,5.98,0000 0000 0000 0000 000000
2017-09-12 13:55:51,0.01,0.06,0.00,23.99,27.36,29.87,13.91,41.57,1030.79,2032.99,3526.01,3074.25,3532.01,600.17,602.52,6.03,0000 0000 0000 0000 000000
2017-09-12 14:00:52,-0.00,0.06,0.00,23.99,27.35,29.86,13.96,41.52,1030.79,2032.99,3526.00,3074.08,3532.00,600.17,602.50,6.08,0000 0000 0000 0000 000000
2017-09-12 14:05:54,0.00,0.06,0.00,23.99,27.35,29.86,14.00,41.53,1030.78,2032.99,3525.97,3074.02,3532.00,600.23,602.61,6.13,0000 0000 0000 0000 000000